Regional Weather Roundup
Issued by NWS

Home | Current Version | Previous Version | Text Only | Print | Product List | Glossary Off
Versions: 1 2 3 4 5 6 7 8 9 10 11 12 13 14 15 16 17 18 19 20 21 22 23 24 25 26 27 28 29 30 31 32 33 34 35 36 37 38 39 40 41 42 43 44 45 46 47 48 49 50

000
ASUS43 KLMK 271710
RWRKY
NATIONAL WEATHER SERVICE LOUISVILLE KY
1200 PM EST THU NOV 27 2014

NOTE "FAIR" INDICATES FEW OR NO CLOUDS BELOW 12,000 FEET
WITH NO SIGNIFICANT WEATHER AND/OR OBSTRUCTIONS TO VISIBILITY.

KYZ001>023-026-027-061>063-070>075-271800-
WESTERN AND SOUTH CENTRAL KENTUCKY

CITY           SKY/WX    TMP DP  RH WIND       PRES   REMARKS
PADUCAH        CLOUDY    31  22  69 N12       30.49S WCI  22
HENDERSON      CLOUDY    30  25  80 W15G22    30.46S WCI  19
OWENSBORO      CLOUDY    30  24  78 NW14G21   30.45R WCI  19
HOPKINSVILLE   CLOUDY    34  25  69 NW13G18   30.45R WCI  25
BOWLING GREEN  CLOUDY    32  25  75 NW8G20    30.42R WCI  25
GLASGOW        CLOUDY    32  26  80 NW10      30.38R WCI  24
$$

KYZ024-025-028>034-038-045-046-053-271800-
NORTH CENTRAL KENTUCKY

CITY           SKY/WX    TMP DP  RH WIND       PRES   REMARKS
LOUISVILLE/SDF CLOUDY    33  25  72 W15       30.36R WCI  23
LOUISVILLE/LOU CLOUDY    33  23  66 NW14      30.36R WCI  23
FORT KNOX      CLOUDY    31  26  83 W10       30.35R WCI  22
$$

KYZ035>037-039>044-047>052-055>060-089>105-271800-
NORTHEAST KENTUCKY

CITY           SKY/WX    TMP DP  RH WIND       PRES   REMARKS
LEXINGTON      CLOUDY    30  22  72 NW9       30.30S WCI  22
COVINGTON      CLOUDY    33  20  58 W10       30.28S WCI  25
FRANKFORT      PTSUNNY   33  21  61 VRB7      30.30F WCI  27
$$

KYZ054-064>069-076>088-106>120-271800-
SOUTHEAST KENTUCKY

CITY           SKY/WX    TMP DP  RH WIND       PRES   REMARKS
JACKSON        CLOUDY    32  24  72 NW8       30.24R WCI  25
LONDON         CLOUDY    33  27  78 NW9G18    30.28S WCI  25
SOMERSET       CLOUDY    32  28  86 N10       30.33R WCI  24
MIDDLESBORO    NOT AVBL
MONTICELLO     CLOUDY    34  30  85 W12       30.34S WCI  25
$$




USA.gov is the U.S. government's official web portal to all federal, state and local government web resources and services.